Date String (YYYY-MM-DD hh:mm:ss) UTC,Instrument flags,absolute air pressure of the measurement (hPa),sample flow rate (lpm),inlet stack bypass flow (lpm),air temperature of the measurement (°C),ambient temperature measured by the external sensor (°C),aerosol sample conditioner tube jacket temperature (°C),OPC LED temperature (°C),internal box temperature (°C),relative humidity of the measurement (%),span deviation,mass concentration of particles derived from Lorenz-Mie calculation of OPC scattering (μg/m³),mass concentration of particles derived from Lorenz-Mie calculation of OPC scattering (μg/m³),mass concentration of particles derived from Lorenz-Mie calculation of OPC scattering (μg/m³)
DateTimeUTC,F1_M11,P_M11,Q1_M11,Q2_M11,T1_M11,T2_M11,T3_M11,T4_M11,T5_M11,U1_M11,ZSPAN_M11,X0_M11,X2_M11,X1_M11
2024-01-02 21:00:00,SystemResetWarning,0830.0,4.99,000.00,024.7,024.1,000.0,032.9,026.2,12.3,0000.7,0013.64,0006.08,0005.40
2024-01-02 21:01:00,SystemResetWarning,0830.0,5.01,000.00,024.7,024.1,000.0,032.9,026.2,12.2,0000.7,0013.31,0006.07,0005.39
2024-01-02 21:02:00,SystemResetWarning,0830.0,5.01,000.00,024.8,024.1,000.0,032.9,026.2,12.2,0003.4,0012.96,0006.04,0005.38
2024-01-02 21:03:00,SystemResetWarning,0830.0,4.99,000.00,024.8,024.1,000.0,032.9,026.2,12.2,0002.3,0013.50,0006.05,0005.39
2024-01-02 21:04:00,SystemResetWarning,0829.9,4.99,000.00,024.8,024.2,000.0,032.9,026.2,12.1,0004.6,0012.69,0006.04,0005.39
2024-01-02 21:05:00,SystemResetWarning,0829.9,5.01,000.00,024.8,024.2,000.0,032.9,026.2,12.2,0002.8,0012.65,0006.01,0005.39
2024-01-02 21:06:00,SystemResetWarning,0829.9,5.01,000.00,024.8,024.2,000.0,033.0,026.2,12.2,0002.1,0012.73,0005.99,0005.38
2024-01-02 21:07:00,SystemResetWarning,0829.9,5.00,000.00,024.8,024.2,000.0,033.0,026.2,12.1,0000.0,0013.52,0006.00,0005.39
2024-01-02 21:08:00,SystemResetWarning,0829.9,4.99,000.00,024.8,024.2,000.0,033.0,026.2,12.1,0000.0,0013.61,0006.02,0005.40
2024-01-02 21:09:00,SystemResetWarning,0829.9,5.01,000.00,024.8,024.2,000.0,033.0,026.2,12.2,0000.5,0013.84,0006.03,0005.41
2024-01-02 21:10:00,SystemResetWarning,0829.9,5.00,000.00,024.8,024.2,000.0,033.0,026.2,12.2,0004.0,0013.19,0006.05,0005.43
2024-01-02 21:11:00,SystemResetWarning,0830.0,5.00,000.00,024.8,024.2,000.0,033.0,026.3,12.1,0004.8,0013.56,0006.08,0005.43
2024-01-02 21:12:00,SystemResetWarning,0829.9,5.00,000.00,024.9,024.2,000.0,033.0,026.2,12.1,0004.1,0013.94,0006.12,0005.46
2024-01-02 21:13:00,SystemResetWarning,0829.9,5.01,000.00,024.9,024.2,000.0,033.0,026.2,12.1,0000.0,0013.95,0006.20,0005.50
2024-01-02 21:14:00,SystemResetWarning,0829.9,5.01,000.00,024.9,024.2,000.0,033.0,026.2,12.1,0000.0,0013.41,0006.20,0005.52
2024-01-02 21:15:00,SystemResetWarning,0829.9,4.99,000.00,024.9,024.2,000.0,033.1,026.2,12.1,0000.0,0013.60,0006.20,0005.54
2024-01-02 21:16:00,SystemResetWarning,0829.8,4.99,000.00,024.9,024.2,000.0,033.1,026.3,12.1,0000.0,0013.39,0006.20,0005.56
2024-01-02 21:17:00,SystemResetWarning,0829.8,5.00,000.00,024.9,024.3,000.0,033.1,026.3,12.1,0000.0,0013.59,0006.24,0005.58
2024-01-02 21:18:00,SystemResetWarning,0829.8,5.01,000.00,024.9,024.3,000.0,033.1,026.3,12.1,0000.0,0013.21,0006.27,0005.60
2024-01-02 21:19:00,SystemResetWarning,0829.8,5.01,000.00,024.9,024.3,000.0,033.1,026.3,12.1,0000.0,0013.35,0006.30,0005.61
2024-01-02 21:20:00,SystemResetWarning,0829.8,4.99,000.00,024.9,024.3,000.0,033.1,026.3,12.1,0000.0,0013.25,0006.33,0005.63
2024-01-02 21:21:00,SystemResetWarning,0829.8,4.99,000.00,025.0,024.3,000.0,033.1,026.3,12.1,0000.0,0013.10,0006.34,0005.64
2024-01-02 21:22:00,SystemResetWarning,0829.8,5.01,000.00,025.0,024.3,000.0,033.1,026.3,12.1,0000.0,0013.57,0006.36,0005.65
2024-01-02 21:23:00,SystemResetWarning,0829.9,5.01,000.00,025.0,024.3,000.0,033.1,026.2,12.1,0000.0,0012.72,0006.37,0005.67
2024-01-02 21:24:00,SystemResetWarning,0829.8,4.99,000.00,025.0,024.3,000.0,033.1,026.3,12.1,0000.0,0012.61,0006.36,0005.67
2024-01-02 21:25:00,SystemResetWarning,0829.8,4.99,000.00,025.0,024.3,000.0,033.2,026.3,12.1,0000.0,0012.48,0006.44,0005.69
2024-01-02 21:26:00,SystemResetWarning,0829.8,5.01,000.00,025.0,024.3,000.0,033.2,026.3,12.1,0000.0,0012.36,0006.50,0005.70
2024-01-02 21:27:00,SystemResetWarning,0829.9,5.02,000.00,025.0,024.3,000.0,033.2,026.4,12.1,0000.0,0012.74,0006.58,0005.73
2024-01-02 21:28:00,SystemResetWarning,0829.9,4.99,000.00,025.0,024.4,000.0,033.2,026.4,12.1,0000.0,0013.90,0006.61,0005.77
2024-01-02 21:29:00,SystemResetWarning,0829.9,4.99,000.00,025.0,024.4,000.0,033.2,026.4,12.1,0000.0,0013.67,0006.63,0005.81
2024-01-02 21:30:00,SystemResetWarning,0829.9,5.00,000.00,025.0,024.4,000.0,033.2,026.4,12.0,0000.0,0013.16,0006.64,0005.85
2024-01-02 21:31:00,SystemResetWarning,0830.0,4.99,000.00,025.0,024.4,000.0,033.2,026.4,12.0,0000.0,0013.24,0006.65,0005.88
2024-01-02 21:32:00,SystemResetWarning,0829.9,5.01,000.00,025.1,024.4,000.0,033.2,026.4,12.1,0000.0,0014.01,0006.70,0005.92
2024-01-02 21:33:00,SystemResetWarning,0830.0,5.01,000.00,025.1,024.4,000.0,033.2,026.4,12.0,0000.0,0013.44,0006.71,0005.96
2024-01-02 21:34:00,SystemResetWarning,0830.0,4.99,000.00,025.1,024.4,000.0,033.2,026.4,12.0,0000.0,0013.58,0006.73,0005.99
2024-01-02 21:35:00,SystemResetWarning,0830.0,4.99,000.00,025.1,024.4,000.0,033.3,026.5,11.9,0000.0,0013.85,0006.79,0006.04
2024-01-02 21:36:00,SystemResetWarning,0830.0,5.00,000.00,025.1,024.4,000.0,033.3,026.5,11.9,0000.0,0014.21,0006.79,0006.06
2024-01-02 21:37:00,SystemResetWarning,0830.0,5.00,000.00,025.1,024.5,000.0,033.3,026.5,11.9,0000.0,0014.58,0006.82,0006.11
2024-01-02 21:38:00,SystemResetWarning,0830.0,5.01,000.00,025.1,024.5,000.0,033.3,026.5,11.9,0000.0,0015.14,0006.82,0006.14
2024-01-02 21:39:00,SystemResetWarning,0830.0,5.01,000.00,025.2,024.5,000.0,033.3,026.5,12.0,0003.1,0014.65,0006.81,0006.14
2024-01-02 21:40:00,SystemResetWarning,0830.1,5.00,000.00,025.2,024.5,000.0,033.3,026.6,11.9,0004.3,0014.09,0006.79,0006.13
2024-01-02 21:41:00,SystemResetWarning,0830.0,5.00,000.00,025.2,024.5,000.0,033.3,026.5,11.9,0004.4,0014.24,0006.80,0006.14
2024-01-02 21:42:00,SystemResetWarning,0830.0,5.00,000.00,025.2,024.5,000.0,033.3,026.6,11.9,0004.6,0015.04,0006.82,0006.17
2024-01-02 21:43:00,SystemResetWarning,0830.0,5.00,000.00,025.2,024.5,000.0,033.4,026.6,11.9,0002.8,0015.52,0006.81,0006.18
2024-01-02 21:44:00,SystemResetWarning,0830.0,5.02,000.00,025.2,024.6,000.0,033.4,026.6,11.8,0000.0,0015.21,0006.81,0006.20
2024-01-02 21:45:00,SystemResetWarning,0830.0,5.01,000.00,025.2,024.5,000.0,033.4,026.5,11.9,0000.0,0015.26,0006.82,0006.22
2024-01-02 21:46:00,SystemResetWarning,0830.0,4.99,000.00,025.2,024.5,000.0,033.4,026.5,11.8,0000.0,0015.62,0006.84,0006.23
2024-01-02 21:47:00,SystemResetWarning,0830.0,5.00,000.00,025.2,024.6,000.0,033.4,026.6,11.8,0003.0,0015.76,0006.82,0006.23
2024-01-02 21:48:00,SystemResetWarning,0830.0,4.99,000.00,025.3,024.6,000.0,033.4,026.6,11.9,0004.4,0015.91,0006.81,0006.24
2024-01-02 21:49:00,SystemResetWarning,0830.0,5.01,000.00,025.3,024.6,000.0,033.4,026.6,11.9,0004.8,0016.12,0006.83,0006.23
2024-01-02 21:50:00,SystemResetWarning,0830.0,5.00,000.00,025.3,024.6,000.0,033.4,026.6,11.9,0005.1,0015.57,0006.83,0006.24
2024-01-02 21:51:00,SystemResetWarning,0830.0,5.01,000.00,025.3,024.6,000.0,033.4,026.6,11.9,0005.3,0015.07,0006.83,0006.27
2024-01-02 21:52:00,SystemResetWarning,0830.0,5.00,000.00,025.3,024.6,000.0,033.4,026.5,11.9,0005.0,0014.98,0006.86,0006.31
2024-01-02 21:53:00,SystemResetWarning,0830.0,5.01,000.00,025.3,024.6,000.0,033.5,026.5,11.9,0004.5,0014.83,0006.90,0006.34
2024-01-02 21:54:00,SystemResetWarning,0830.0,5.00,000.00,025.3,024.5,000.0,033.5,026.5,12.0,0004.1,0014.00,0006.92,0006.37
2024-01-02 21:55:00,SystemResetWarning,0830.0,4.99,000.00,025.3,024.5,000.0,033.5,026.5,11.9,0003.4,0013.95,0006.96,0006.39
2024-01-02 21:56:00,SystemResetWarning,0830.0,5.00,000.00,025.3,024.5,000.0,033.5,026.5,11.9,0003.6,0014.16,0006.99,0006.41
2024-01-02 21:57:00,SystemResetWarning,0830.0,5.00,000.00,025.3,024.5,000.0,033.5,026.5,11.9,0003.7,0014.46,0006.98,0006.43
2024-01-02 21:58:00,SystemResetWarning,0830.0,5.00,000.00,025.3,024.5,000.0,033.5,026.5,11.9,0003.6,0014.29,0007.00,0006.44
2024-01-02 21:59:00,SystemResetWarning,0830.0,5.00,000.00,025.3,024.5,000.0,033.5,026.5,11.9,0003.7,0014.62,0007.04,0006.45
